Regional Weather Roundup
Issued by NWS Bismarck, ND

Home | Current Version | Previous Version | Text Only | Print | Product List | Glossary On
Versions: 1 2 3 4 5 6 7 8 9 10 11 12 13 14 15 16 17 18 19 20 21 22 23 24 25 26 27 28 29 30 31 32 33 34 35 36 37 38 39 40 41 42 43 44 45 46 47 48 49 50
577
ASUS43 KBIS 281910
RWRBIS

NWR BROADCAST TEXT
NATIONAL WEATHER SERVICE BISMARCK ND
200 PM CDT SUN MAY 28 2017

NOTE: "FAIR" INDICATES FEW OR NO CLOUDS BELOW 12,000 FEET WITH NO
SIGNIFICANT WEATHER AND/OR OBSTRUCTIONS TO VISIBILITY.


CITY           SKY/WX    TMP DP  RH WIND       PRES   REMARKS
WILLISTON      FAIR      72  35  25 N28G41    29.99R
MINOT          FAIR      69  39  33 NW33G44   29.85S
MINOT AFB      FAIR      67  39  36 NW37G43   29.84R
BISMARCK       FAIR      75  39  27 NW20G32   29.87F
DICKINSON      FAIR      72  29  20 NW35G46   29.93S
GARRISON         N/A     72  37  28 NW35G48   29.86F
HETTINGER ARPT PTSUNNY   61  43  51 NW21G31   30.00R
JAMESTOWN      PTSUNNY   68  42  38 NW21G31   29.78F
HAZEN          FAIR      70  39  32 NW25G31   29.91S
LINTON         FAIR      72  48  43 NW22G29   29.90F
MANDAN         FAIR      72  39  30 NW25G36   29.87F
STANLEY        FAIR      68  36  30 NW31G43   29.94S
TIOGA          FAIR      66  36  32 N31G41    29.95F
WATFORD CITY   FAIR      70  37  30 NW25G38   29.95S
$$

CITY           SKY/WX    TMP DP  RH WIND       PRES   REMARKS
GRAND FORKS    LGT RAIN  56  50  80 NW16G30   29.72F
GRAND FORKS AF PTSUNNY   55  48  76 NW15G31   29.73F
DEVILS LAKE    LGT RAIN  57  46  66 NW15      29.77S
FARGO          PTSUNNY   67  44  43 W21G29    29.75F
CAVALIER       FAIR      59  48  67 N17G24    29.72F
GRAFTON        MOCLDY    59  50  72 N17G24    29.74S
GWINNER        PTCLDY    70  41  35 MISG      29.80F
LANGDON        CLOUDY    57  50  77 NW24G33   29.75R
ROLLA          CLOUDY    54  43  66 NW28G35   29.80R
$$

CITY           SKY/WX    TMP DP  RH WIND       PRES   REMARKS
ABERDEEN       FAIR      73  36  25 NW24G35   29.86F
MOBRIDGE       FAIR      76  37  24 NW21G30   29.89F
BUFFALO          N/A     66  38  35 NW26G40   29.95F
RAPID CITY     FAIR      73  38  27 NW20G30   30.07F
GLASGOW        FAIR      73  32  22 N26G40    30.08S
SIDNEY         FAIR      73  37  27 NW24G36   29.99R
WOLF POINT     FAIR      75  34  22 NW23G38   30.05R
GLENDIVE       FAIR      74  34  23 NW28G40   30.01S
MILES CITY     PTSUNNY   79  35  20 NW26G38   30.05S
BAKER          FAIR      69  35  28 W26G35    30.02F
$$

CITY           SKY/WX    TMP DP  RH WIND       PRES   REMARKS
BILLINGS       TSTM      66  41  40 N18G37    30.19S
GREAT FALLS    FAIR      70  41  34 NE9       30.24F
REGINA         PTSUNNY   64  37  36 N28G37    29.99F
ESTEVAN        PTSUNNY   63  41  45 N26G38    29.95R
$$





USA.gov is the U.S. government's official web portal to all federal, state and local government web resources and services.